TimeEST,TemperatureF,Dew PointF,Humidity,Sea Level PressureIn,VisibilityMPH,Wind Direction,Wind SpeedMPH,Gust SpeedMPH,PrecipitationIn,Events,Conditions,WindDirDegrees,DateUTC
12:15 AM,37.4,28.4,70,30.35,10.0,Calm,Calm,-,N/A,,Clear,0,2012-11-19 05:15:00
12:35 AM,37.4,26.6,65,30.35,10.0,Calm,Calm,-,N/A,,Clear,0,2012-11-19 05:35:00
12:55 AM,33.8,26.6,75,30.35,10.0,Calm,Calm,-,N/A,,Clear,0,2012-11-19 05:55:00
1:15 AM,35.6,26.6,70,30.34,10.0,Calm,Calm,-,N/A,,Clear,0,2012-11-19 06:15:00
1:35 AM,33.8,28.4,81,30.34,10.0,Calm,Calm,-,N/A,,Clear,0,2012-11-19 06:35:00
2:15 AM,33.8,26.6,75,30.33,10.0,Calm,Calm,-,N/A,,Clear,0,2012-11-19 07:15:00
2:35 AM,33.8,26.6,75,30.34,10.0,Calm,Calm,-,N/A,,Clear,0,2012-11-19 07:35:00
2:55 AM,35.6,26.6,70,30.34,10.0,Calm,Calm,-,N/A,,Clear,0,2012-11-19 07:55:00
3:15 AM,35.6,26.6,70,30.33,10.0,Calm,Calm,-,N/A,,Clear,0,2012-11-19 08:15:00
3:35 AM,32.0,26.6,80,30.33,10.0,SE,5.8,-,N/A,,Clear,130,2012-11-19 08:35:00
3:55 AM,33.8,28.4,81,30.32,10.0,ESE,3.5,-,N/A,,Clear,120,2012-11-19 08:55:00
4:15 AM,33.8,28.4,81,30.32,10.0,Calm,Calm,-,N/A,,Clear,0,2012-11-19 09:15:00
4:35 AM,32.0,28.4,87,30.32,10.0,Calm,Calm,-,N/A,,Clear,0,2012-11-19 09:35:00
4:55 AM,33.8,26.6,75,30.32,10.0,Calm,Calm,-,N/A,,Clear,0,2012-11-19 09:55:00
5:15 AM,32.0,26.6,80,30.33,10.0,Calm,Calm,-,N/A,,Clear,0,2012-11-19 10:15:00
5:35 AM,32.0,26.6,80,30.33,10.0,Calm,Calm,-,N/A,,Clear,0,2012-11-19 10:35:00
5:55 AM,32.0,26.6,80,30.33,10.0,Calm,Calm,-,N/A,,Clear,0,2012-11-19 10:55:00
6:15 AM,33.8,26.6,75,30.33,10.0,Calm,Calm,-,N/A,,Clear,0,2012-11-19 11:15:00
6:35 AM,32.0,26.6,80,30.33,10.0,SSE,3.5,-,N/A,,Clear,160,2012-11-19 11:35:00
6:55 AM,33.8,28.4,81,30.33,10.0,Calm,Calm,-,N/A,,Clear,0,2012-11-19 11:55:00
7:15 AM,32.0,28.4,87,30.32,10.0,Calm,Calm,-,N/A,,Clear,0,2012-11-19 12:15:00
7:35 AM,32.0,26.6,80,30.33,10.0,Calm,Calm,-,N/A,,Clear,0,2012-11-19 12:35:00
7:55 AM,32.0,26.6,80,30.32,10.0,Calm,Calm,-,N/A,,Clear,0,2012-11-19 12:55:00
8:15 AM,30.2,26.6,86,30.33,10.0,SE,3.5,-,N/A,,Clear,130,2012-11-19 13:15:00
8:35 AM,33.8,28.4,81,30.33,10.0,Calm,Calm,-,N/A,,Clear,0,2012-11-19 13:35:00
8:55 AM,35.6,30.2,81,30.33,10.0,ESE,3.5,-,N/A,,Clear,110,2012-11-19 13:55:00
9:15 AM,39.2,32.0,75,30.33,10.0,Calm,Calm,-,N/A,,Clear,0,2012-11-19 14:15:00
9:35 AM,42.8,33.8,70,30.33,10.0,Calm,Calm,-,N/A,,Clear,0,2012-11-19 14:35:00
10:15 AM,50.0,35.6,58,30.33,10.0,Calm,Calm,-,N/A,,Clear,0,2012-11-19 15:15:00
10:35 AM,51.8,33.8,50,30.33,10.0,Calm,Calm,-,N/A,,Clear,0,2012-11-19 15:35:00
10:55 AM,53.6,33.8,47,30.33,10.0,Calm,Calm,-,N/A,,Clear,0,2012-11-19 15:55:00
11:15 AM,53.6,33.8,47,30.33,10.0,Calm,Calm,-,N/A,,Clear,0,2012-11-19 16:15:00
11:35 AM,55.4,33.8,44,30.32,10.0,Calm,Calm,-,N/A,,Clear,0,2012-11-19 16:35:00
11:55 AM,57.2,33.8,41,30.32,10.0,Calm,Calm,-,N/A,,Clear,0,2012-11-19 16:55:00
12:15 PM,57.2,32.0,38,30.30,10.0,West,4.6,-,N/A,,Clear,270,2012-11-19 17:15:00
12:35 PM,59.0,32.0,36,30.30,10.0,NW,4.6,-,N/A,,Clear,320,2012-11-19 17:35:00
12:55 PM,57.2,30.2,36,30.28,10.0,NNW,3.5,-,N/A,,Clear,330,2012-11-19 17:55:00
1:15 PM,59.0,30.2,34,30.28,10.0,WNW,4.6,-,N/A,,Clear,300,2012-11-19 18:15:00
1:35 PM,57.2,32.0,38,30.27,10.0,NW,3.5,-,N/A,,Clear,320,2012-11-19 18:35:00
1:55 PM,59.0,32.0,36,30.28,10.0,WNW,4.6,-,N/A,,Clear,300,2012-11-19 18:55:00
2:15 PM,59.0,30.2,34,30.27,10.0,NW,5.8,-,N/A,,Clear,310,2012-11-19 19:15:00
2:35 PM,59.0,30.2,34,30.26,10.0,NW,3.5,-,N/A,,Clear,320,2012-11-19 19:35:00
2:55 PM,59.0,32.0,36,30.25,10.0,NW,3.5,-,N/A,,Clear,320,2012-11-19 19:55:00
3:15 PM,57.2,30.2,36,30.25,10.0,NW,3.5,-,N/A,,Clear,320,2012-11-19 20:15:00
3:35 PM,59.0,30.2,34,30.24,10.0,Calm,Calm,-,N/A,,Clear,0,2012-11-19 20:35:00
4:15 PM,57.2,32.0,38,30.24,10.0,Calm,Calm,-,N/A,,Clear,0,2012-11-19 21:15:00
4:35 PM,57.2,32.0,38,30.24,10.0,Calm,Calm,-,N/A,,Clear,0,2012-11-19 21:35:00
4:55 PM,57.2,32.0,38,30.23,10.0,Calm,Calm,-,N/A,,Clear,0,2012-11-19 21:55:00
5:15 PM,57.2,30.2,36,30.23,10.0,Calm,Calm,-,N/A,,Clear,0,2012-11-19 22:15:00
5:35 PM,55.4,30.2,38,30.23,10.0,Calm,Calm,-,N/A,,Clear,0,2012-11-19 22:35:00
5:55 PM,53.6,32.0,44,30.23,10.0,Calm,Calm,-,N/A,,Clear,0,2012-11-19 22:55:00
6:15 PM,53.6,32.0,44,30.23,10.0,Calm,Calm,-,N/A,,Clear,0,2012-11-19 23:15:00
6:35 PM,53.6,32.0,44,30.22,10.0,Calm,Calm,-,N/A,,Clear,0,2012-11-19 23:35:00
6:55 PM,51.8,32.0,47,30.22,5.0,Calm,Calm,-,N/A,,Clear,0,2012-11-19 23:55:00
7:15 PM,51.8,32.0,47,30.22,7.0,Calm,Calm,-,N/A,,Clear,0,2012-11-20 00:15:00
7:35 PM,48.2,33.8,58,30.22,10.0,ESE,3.5,-,N/A,,Clear,120,2012-11-20 00:35:00
7:55 PM,48.2,32.0,54,30.22,10.0,SSE,3.5,-,N/A,,Clear,150,2012-11-20 00:55:00
8:15 PM,48.2,32.0,54,30.22,10.0,Calm,Calm,-,N/A,,Clear,0,2012-11-20 01:15:00
8:35 PM,48.2,32.0,54,30.22,10.0,Calm,Calm,-,N/A,,Clear,0,2012-11-20 01:35:00
8:55 PM,48.2,32.0,54,30.22,10.0,Calm,Calm,-,N/A,,Clear,0,2012-11-20 01:55:00
9:15 PM,46.4,32.0,57,30.21,10.0,Calm,Calm,-,N/A,,Clear,0,2012-11-20 02:15:00
9:35 PM,44.6,32.0,61,30.22,10.0,Calm,Calm,-,N/A,,Clear,0,2012-11-20 02:35:00
9:55 PM,44.6,33.8,66,30.22,10.0,Calm,Calm,-,N/A,,Clear,0,2012-11-20 02:55:00
10:15 PM,42.8,33.8,70,30.20,10.0,Calm,Calm,-,N/A,,Clear,0,2012-11-20 03:15:00
10:35 PM,46.4,32.0,57,30.20,10.0,Calm,Calm,-,N/A,,Clear,0,2012-11-20 03:35:00
10:55 PM,44.6,32.0,61,30.20,10.0,Calm,Calm,-,N/A,,Clear,0,2012-11-20 03:55:00
11:15 PM,42.8,33.8,70,30.19,10.0,Calm,Calm,-,N/A,,Scattered Clouds,0,2012-11-20 04:15:00
11:35 PM,44.6,33.8,66,30.19,10.0,Calm,Calm,-,N/A,,Scattered Clouds,0,2012-11-20 04:35:00
11:55 PM,44.6,33.8,66,30.19,10.0,Calm,Calm,-,N/A,,Clear,0,2012-11-20 04:55:00